(131223) = 2001 DQ91 = 2002 NM37

Discovered at Kitt Peak on 2001-02-20 by Spacewatch.

Orbit

Orbit type: Main Belt

Note: WebGL enabled browser required.

epoch2024-03-31.0
epoch JD2460400.5
perihelion date2020-08-31.36148
perihelion JD2459092.86148
argument of perihelion (°)88.95478
ascending node (°)168.83542
inclination (°)7.92312
eccentricity0.1844329
perihelion distance (AU)2.2713245
Tisserand w.r.t. Jupiter3.3
ΔV w.r.t. Earth (km/sec)9.8
semimajor axis (AU)2.7849634
mean anomaly (°)277.30795
mean daily motion (°/day)0.21206770
aphelion distance (AU)3.299
period (years)4.65
P-vector [x]-0.20964402
P-vector [y]-0.94295935
P-vector [z]-0.25860596
Q-vector [x]0.97741342
Q-vector [y]-0.19488368
Q-vector [z]-0.08175176
absolute magnitude15.59
phase slope0.15
uncertainty0
referenceMPEC 2024-E179
observations used772
oppositions17
arc length (days)8414
first opposition used2001
last opposition used2024
residual rms (arc-secs)0.68
perturbers coarse indicatorM-v
perturbers precise indicator003Ek
first observation date used2001-02-20.0
last observation date used2024-03-05.0
computer nameMPCLINUX
Minimum Orbit Intersection Distances (in AU)
for orbit epoch: 2460400.5, reference: E2024-FB1
Mercury1.81587
Venus1.55544
Earth1.27348
Mars0.79225
Jupiter1.81745
Saturn5.78394
Uranus15.5362
Neptune26.6167

Observations

802 total observations over interval: 2001 02 20.38195 – 2024 03 05.197848
These data are available for download (format description).

Date (UT) J2000 RA J2000 Dec Magn Location Ref
2001 02 20.38195 11 27 41.12 +02 22 14.5 20.1 V 691 – Steward Observatory, Kitt Peak-Spacewatch MPS 28090
2001 02 20.40390 11 27 40.25 +02 22 23.5 19.7 V 691 – Steward Observatory, Kitt Peak-Spacewatch MPS 28090
2001 02 20.42572 11 27 39.39 +02 22 32.7 20.2 V 691 – Steward Observatory, Kitt Peak-Spacewatch MPS 28090
2001 02 22.31445 11 26 26.39 +02 35 43.5 18.9   704 – Lincoln Laboratory ETS, New Mexico MPS 28090
2001 02 22.32856 11 26 25.78 +02 35 50.4 19.2   704 – Lincoln Laboratory ETS, New Mexico MPS 28090
2001 02 22.34263 11 26 25.23 +02 35 57.9 19.3   704 – Lincoln Laboratory ETS, New Mexico MPS 28090
2001 02 22.35670 11 26 24.60 +02 36 03.1 19.5   704 – Lincoln Laboratory ETS, New Mexico MPS 28090
2001 03 18.20503 11 08 19.80 +05 45 16.1 19.6 V 691 – Steward Observatory, Kitt Peak-Spacewatch MPS 28090
2001 03 18.22620 11 08 18.80 +05 45 26.4 19.7 V 691 – Steward Observatory, Kitt Peak-Spacewatch MPS 28090
2001 03 18.24732 11 08 17.78 +05 45 36.9 19.7 V 691 – Steward Observatory, Kitt Peak-Spacewatch MPS 28090
2001 03 18.24809 11 08 17.68 +05 45 36.2 18.7   704 – Lincoln Laboratory ETS, New Mexico MPS 28090
2001 03 18.26101 11 08 17.12 +05 45 42.7 19.1   704 – Lincoln Laboratory ETS, New Mexico MPS 28090
2001 03 18.28689 11 08 15.90 +05 45 55.2 18.6   704 – Lincoln Laboratory ETS, New Mexico MPS 28090
2001 03 18.29982 11 08 15.24 +05 46 01.0 19.0   704 – Lincoln Laboratory ETS, New Mexico MPS 28090
2001 03 27.19979 11 01 51.07 +06 54 16.7 19.8 V 691 – Steward Observatory, Kitt Peak-Spacewatch MPS 28090
2001 03 27.22098 11 01 50.20 +06 54 26.3 20.0 V 691 – Steward Observatory, Kitt Peak-Spacewatch MPS 28090
2001 03 27.24240 11 01 49.31 +06 54 35.3 19.9 V 691 – Steward Observatory, Kitt Peak-Spacewatch MPS 28090
2001 03 29.13702 11 00 36.00 +07 08 02.9 18.5 R 699 – Lowell Observatory-LONEOS MPS 28090
2001 03 29.16352 11 00 34.88 +07 08 14.0   699 – Lowell Observatory-LONEOS MPS 28090
2001 03 29.19005 11 00 33.87 +07 08 24.7   699 – Lowell Observatory-LONEOS MPS 28090
2001 03 29.21674 11 00 32.85 +07 08 36.2   699 – Lowell Observatory-LONEOS MPS 28090
2001 04 01.22829 10 58 43.96 +07 29 01.3 19.1   704 – Lincoln Laboratory ETS, New Mexico MPS 28090
2001 04 01.24256 10 58 43.41 +07 29 06.2 19.5   704 – Lincoln Laboratory ETS, New Mexico MPS 28090
2001 04 01.25680 10 58 42.96 +07 29 11.9 19.7   704 – Lincoln Laboratory ETS, New Mexico MPS 28090
2002 07 09.33131 21 28 46.68 -06 06 18.4 20.0   704 – Lincoln Laboratory ETS, New Mexico MPS 59092
2002 07 09.34448 21 28 46.33 -06 06 19.5 20.2   704 – Lincoln Laboratory ETS, New Mexico MPS 59092
2002 07 09.35767 21 28 45.93 -06 06 22.4 20.0   704 – Lincoln Laboratory ETS, New Mexico MPS 59092
2002 07 09.37085 21 28 45.66 -06 06 24.5 20.0   704 – Lincoln Laboratory ETS, New Mexico MPS 59092
2002 07 12.37393 21 27 27.08 -06 15 20.6 19.1   644 – Palomar Mountain/NEAT MPS 59092
2002 07 12.38455 21 27 26.77 -06 15 22.4 19.1   644 – Palomar Mountain/NEAT MPS 59092
2002 07 12.40047 21 27 26.29 -06 15 25.7 19.0   644 – Palomar Mountain/NEAT MPS 59092
2002 07 21.36053 21 22 23.60 -06 52 21.6 18.5   644 – Palomar Mountain/NEAT MPS 59092
2002 07 21.38375 21 22 22.64 -06 52 28.6 18.5   644 – Palomar Mountain/NEAT MPS 59092
2002 07 21.40460 21 22 21.79 -06 52 34.6 18.7   644 – Palomar Mountain/NEAT MPS 59092
2002 07 23.27315 21 21 07.93 -07 02 04.3 19.4   644 – Palomar Mountain/NEAT MPS 60031
2002 07 23.34906 21 21 04.69 -07 02 27.4 19.0   644 – Palomar Mountain/NEAT MPS 60031
2002 07 23.41700 21 21 01.84 -07 02 49.7 19.5   644 – Palomar Mountain/NEAT MPS 60031
2002 08 05.38420 21 11 21.10 -08 22 29.0 18.3   644 – Palomar Mountain/NEAT MPS 60031
2002 08 05.39601 21 11 20.52 -08 22 33.8 18.2   644 – Palomar Mountain/NEAT MPS 60031
2002 08 05.40683 21 11 19.97 -08 22 38.4 18.2   644 – Palomar Mountain/NEAT MPS 60031
2002 08 14.24687 21 04 26.19 -09 25 50.2 19.1   704 – Lincoln Laboratory ETS, New Mexico MPS 60031
2002 08 14.26191 21 04 25.49 -09 25 56.9 18.9   704 – Lincoln Laboratory ETS, New Mexico MPS 60031
2002 08 14.27678 21 04 24.83 -09 26 05.4 19.0   704 – Lincoln Laboratory ETS, New Mexico MPS 60031
2002 08 14.29212 21 04 24.04 -09 26 12.2 19.3   704 – Lincoln Laboratory ETS, New Mexico MPS 60031
2002 08 26.26096 20 56 11.85 -10 53 18.6 18.8   644 – Palomar Mountain/NEAT MPS 61079
2002 08 26.28906 20 56 10.80 -10 53 30.7 18.8   644 – Palomar Mountain/NEAT MPS 61079
2002 08 26.31934 20 56 09.67 -10 53 43.4 19.0   644 – Palomar Mountain/NEAT MPS 61079
2003 11 29.35559 02 59 41.75 +06 48 00.0 20.9 V 691 – Steward Observatory, Kitt Peak-Spacewatch MPS 92667
2003 11 29.38300 02 59 40.54 +06 47 55.8 20.6 V 691 – Steward Observatory, Kitt Peak-Spacewatch MPS 92667
2003 11 29.41367 02 59 39.18 +06 47 51.4 21.2 V 691 – Steward Observatory, Kitt Peak-Spacewatch MPS 92667
2006 01 04.51709 13 39 07.23 -08 11 12.8 21.1 V 691 – Steward Observatory, Kitt Peak-Spacewatch MPS 157585
2006 01 04.53208 13 39 08.35 -08 11 17.7 21.5 V 691 – Steward Observatory, Kitt Peak-Spacewatch MPS 157585
2006 01 04.54702 13 39 09.52 -08 11 21.7 21.0 V 691 – Steward Observatory, Kitt Peak-Spacewatch MPS 157585
2006 02 25.41263 14 28 23.73 -09 23 47.7 19.4 V 703 – Catalina Sky Survey MPS 164965
2006 02 25.42103 14 28 24.02 -09 23 44.1 18.4 V 703 – Catalina Sky Survey MPS 164965
2006 02 25.42944 14 28 24.13 -09 23 42.9 18.1 V 703 – Catalina Sky Survey MPS 164965
2006 02 25.43787 14 28 24.20 -09 23 41.3 18.2 V 703 – Catalina Sky Survey MPS 164965
2006 04 06.37632 14 26 46.60 -05 45 31.2 18.8 V 703 – Catalina Sky Survey MPS 168198
2006 04 06.38281 14 26 46.42 -05 45 27.9 19.0 V 703 – Catalina Sky Survey MPS 168198
2006 04 06.38928 14 26 46.10 -05 45 25.0 18.3 V 703 – Catalina Sky Survey MPS 168198
2006 04 06.39599 14 26 45.88 -05 45 21.7 18.8 V 703 – Catalina Sky Survey MPS 168198
2006 04 09.32490 14 25 05.88 -05 22 21.3 18.3   704 – Lincoln Laboratory ETS, New Mexico MPS 168780
2006 04 09.33471 14 25 05.46 -05 22 16.3 18.8   704 – Lincoln Laboratory ETS, New Mexico MPS 168780
2006 04 09.34461 14 25 05.13 -05 22 12.2 18.7   704 – Lincoln Laboratory ETS, New Mexico MPS 168780
2006 04 09.35442 14 25 04.75 -05 22 06.5 19.0   704 – Lincoln Laboratory ETS, New Mexico MPS 168780
2006 04 09.36451 14 25 04.37 -05 22 02.4 18.4   704 – Lincoln Laboratory ETS, New Mexico MPS 168780
2006 04 19.21349 14 18 27.73 -04 03 54.2 18.5 V 691 – Steward Observatory, Kitt Peak-Spacewatch MPS 169096
2006 04 19.23110 14 18 26.92 -04 03 45.2 18.9 V 691 – Steward Observatory, Kitt Peak-Spacewatch MPS 169096
2006 04 19.23152 14 18 26.87 -04 03 46.3 18.2 R 699 – Lowell Observatory-LONEOS MPS 169096
2006 04 19.24872 14 18 26.11 -04 03 37.1 18.9 V 691 – Steward Observatory, Kitt Peak-Spacewatch MPS 169096
2006 04 19.25892 14 18 25.68 -04 03 32.8   699 – Lowell Observatory-LONEOS MPS 169096
2006 04 19.28658 14 18 24.40 -04 03 19.5   699 – Lowell Observatory-LONEOS MPS 169096
2006 04 19.31683 14 18 23.02 -04 03 05.6   699 – Lowell Observatory-LONEOS MPS 169096
2006 04 21.20824 14 16 59.37 -03 48 23.7   691 – Steward Observatory, Kitt Peak-Spacewatch MPS 169096
2006 04 21.22585 14 16 58.55 -03 48 15.9   691 – Steward Observatory, Kitt Peak-Spacewatch MPS 169096
2006 04 21.24346 14 16 57.73 -03 48 07.4   691 – Steward Observatory, Kitt Peak-Spacewatch MPS 169096
2006 04 30.23086 14 10 08.27 -02 42 38.2 18.1 R 699 – Lowell Observatory-LONEOS MPS 175663
2006 04 30.25821 14 10 06.96 -02 42 27.2   699 – Lowell Observatory-LONEOS MPS 175663
2006 04 30.28557 14 10 05.64 -02 42 16.7   699 – Lowell Observatory-LONEOS MPS 175663
2006 04 30.31299 14 10 04.37 -02 42 05.6   699 – Lowell Observatory-LONEOS MPS 175663
2006 05 05.40380 14 06 17.85 -02 09 47.6 18.6 V G96 – Mt. Lemmon Survey MPS 170750
2006 05 05.41488 14 06 17.35 -02 09 43.5 18.5 V G96 – Mt. Lemmon Survey MPS 170750
2006 05 05.42034 14 06 17.10 -02 09 41.6 18.5 V G96 – Mt. Lemmon Survey MPS 170750
2006 05 20.27572 13 57 10.69 -01 03 47.7 18.6 V 703 – Catalina Sky Survey MPS 171916
2006 05 20.28316 13 57 10.51 -01 03 46.4 18.5 V 703 – Catalina Sky Survey MPS 171916
2006 05 20.29060 13 57 10.36 -01 03 45.1 18.3 V 703 – Catalina Sky Survey MPS 171916
2006 05 20.29806 13 57 10.04 -01 03 43.2 18.4 V 703 – Catalina Sky Survey MPS 171916
2006 05 26.24255 13 54 44.17 -00 50 58.6 18.9 V 703 – Catalina Sky Survey MPS 172732
2006 05 26.25374 13 54 43.92 -00 50 56.5 19.1 V 703 – Catalina Sky Survey MPS 172732
2006 05 26.26498 13 54 43.63 -00 50 55.8 19.0 V 703 – Catalina Sky Survey MPS 172732
